SCP
0 0 0 0 0 0 0 0 0 0 0 0 0 0 0 0 0 0 0 0 0 0 0 0 0 0 0 0 0 0 0 0 0 0 0 0 0 0 0 0 0 0 0 0
0 0 0 0 0 0 0 0 0 0 0 0 0 0 0 0 0 0 0 0 0 0 0 0 0 0 0 0 0 0 0 0 0 0 0 0 0 0 0 0 0 0 0 0
0 0 0 0 0 0 0 0 0 0 0 0 0 0 0 0 0 0 0 0 0 0 0 0 0 0 0 0 0 0 0 0 0 0 0 0 0 0 0 0 0 0 0 0
0 0 0 0 0 0 0 0 0 0 0 0 0 0 0 0 0 0 0 0 0 0 0 0 0 0 0 0 0 0 0 0 0 0 0 0 0 0 0 0 0 0 0 0
0 0 0 0 0 0 0 0 0 0 0 0 0 0 0 0 0 0 0 0 0 0 0 0 0 0 0 0 0 0 0 0 0 0 0 0 0 0 0 0 0 0 0 0
0 0 0 0 0 0 0 0 0 0 0 0 0 0 0 0 0 0 0 0 0 0 0 0 0 0 0 0 0 0 0 0 0 0 0 0 0 0 0 0 0 0 0 0
0 0 0 0 0 0 0 0 0 0 0 0 0 0 0 0 0 0 0 0 0 0 0 0 0 0 0 0 0 0 0 0 0 0 0 0 0 0 0 0 0 0 0 0
0 0 0 0 0 0 0 0 0 0 0 0 0 0 0 0 0 0 0 0 0 0 0 0 0 0 0 0 0 0 0 0 0 0 0 0 0 0 0 0 0 0 0 0
0 0 0 0 0 0 0 0 0 0 0 0 0 0 0 0 0 0 0 0 0 0 0 0 0 0 0 0 0 0 0 0 0 0 0 0 0 0 0 0 0 0 0 0
0 0 0 0 0 0 0 0 0 0 0 0 0 0 0 0 0 0 0 0 0 0 0 0 0 0 0 0 0 0 0 0 0 0 0 0 0 0 0 0 0 0 0 0
0 0 0 0 0 0 0 0 0 0 0 0 0 0 0 0 0 0 0 0 0 0 0 0 0 0 0 0 0 0 0 0 0 0 0 0 0 0 0 0 0 0 0 0
0 0 0 0 0 0 0 0 0 0 0 0 0 0 0 0 0 0 0 0 0 0 0 0 0 0 0 0 0 0 0 0 0 0 0 0 0 0 0 0 0 0 0 0
0 0 0 0 0 0 0 0 0 0 0 0 0 0 0 0 0 0 0 0 0 0 0 0 0 0 0 0 0 0 0 0 0 0 0 0 0 0 0 0 0 0 0 0
0 0 0 0 0 0 0 0 0 0 0 0 0 0 0 0 0 0 0 0 0 0 0 0 0 0 0 0 0 0 0 0 0 0 0 0 0 0 0 0 0 0 0 0
0 0 0 0 0 0 0 0 0 0 0 0 0 0 0 0 0 0 0 0 0 0 0 0 0 0 0 0 0 0 0 0 0 0 0 0 0 0 0 0 0 0 0 0
0 0 0 0 0 0 0 0 0 0 0 0 0 0 0 0 0 0 0 0 0 0 0 0 0 0 0 0 0 0 0 0 0 0 0 0 0 0 0 0 0 0 0 0
0 0 0 0 0 0 0 0 0 0 0 0 0 0 0 0 0 0 0 0 0 0 0 0 0 0 0 0 0 0 0 0 0 0 0 0 0 0 0 0 0 0 0 0
0 0 0 0 0 0 0 0 0 0 0 0 0 0 0 0 0 0 0 0 0 0 0 0 0 0 0 0 0 0 0 0 0 0 0 0 0 0 0 0 0 0 0 0
0 0 0 0 0 0 0 0 0 0 0 0 0 0 0 0 0 0 0 0 0 0 0 0 0 0 0 0 0 0 0 0 0 0 0 0 0 0 0 0 0 0 0 0
0 0 0 0 0 0 0 0 0 0 0 0 0 0 0 0 0 0 0 0 0 0 0 0 0 0 0 0 0 0 0 0 0 0 0 0 0 0 0 0 0 0 0 0
0 0 0 0 0 0 0 0 0 0 0 0 0 0 0 0 0 0 0 0 0 0 0 0 0 0 0 0 0 0 0 0 0 0 0 0 0 0 0 0 0 0 0 0
0 0 0 0 0 0 0 0 0 0 0 0 0 0 0 0 0 0 0 0 0 0 0 0 0 0 0 0 0 0 0 0 0 0 0 0 0 0 0 0 0 0 0 0
0 0 0 0 0 0 0 0 0 0 0 0 0 0 0 0 0 0 0 0 0 0 0 0 0 0 0 0 0 0 0 0 0 0 0 0 0 0 0 0 0 0 0 0
0 0 0 0 0 0 0 0 0 0 0 0 0 0 0 0 0 0 0 0 0 0 0 0 0 0 0 0 0 0 0 0 0 0 0 0 0 0 0 0 0 0 0 0
0 0 0 0 0 0 0 0 0 0 0 0 0 0 0 0 0 0 0 0 0 0 0 0 0 0 0 0 0 0 0 0 0 0 0 0 0 0 0 0 0 0 0 0
0 0 0 0 0 0 0 0 0 0 0 0 0 0 0 0 0 0 0 0 0 0 0 0 0 0 0 0 0 0 0 0 0 0 0 0 0 0 0 0 0 0 0 0
0 0 0 0 0 0 0 0 0 0 0 0 0 0 0 0 0 0 0 0 0 0 0 0 0 0 0 0 0 0 0 0 0 0 0 0 0 0 0 0 0 0 0 0
Wind_Speed_500mb
30 7 15 19 30 34 39 48 22 45 43 47 31 16 41 54 52 24 47 68 70 67 63 61 59 59 59 60 59 54 49 45 40 35 30 27 25 24 23 21 19 16 13 12
27 20 18 7 19 37 47 46 36 47 43 40 37 20 21 33 44 43 44 52 62 70 71 69 69 69 67 64 60 58 52 47 40 34 30 27 24 22 20 19 18 16 13 11
28 13 11 14 41 32 26 41 36 39 52 45 40 33 43 49 57 70 70 62 66 72 75 78 80 80 76 72 65 60 55 50 43 38 32 28 24 22 20 19 18 16 15 13
16 13 19 17 17 39 43 37 36 36 41 47 46 62 53 53 62 57 56 63 69 72 77 81 86 86 80 73 68 62 57 51 46 40 35 31 27 25 23 21 19 16 15 14
14 24 4 15 14 21 26 42 39 41 52 65 67 55 53 71 58 59 62 66 70 75 77 70 79 85 82 75 67 62 58 53 47 41 38 34 30 27 24 21 18 16 14 14
7 19 20 23 31 22 12 14 34 50 39 40 56 14 32 74 53 48 46 41 49 61 69 70 78 82 79 71 66 62 57 52 47 43 40 34 30 26 23 20 18 16 14 16
22 9 10 16 10 24 19 24 55 41 59 57 22 39 60 50 38 39 41 41 46 49 56 64 66 69 69 66 66 61 56 51 45 41 37 32 28 24 22 19 16 14 14 16
4 8 16 23 6 22 23 13 38 27 47 63 64 58 52 46 46 42 38 39 41 45 49 51 55 58 58 58 58 52 54 52 46 40 35 30 25 22 19 16 15 16 16 18
13 12 16 39 37 55 53 38 40 35 31 30 35 44 42 42 44 46 39 36 40 46 49 50 53 55 57 53 50 49 45 44 44 39 32 26 26 22 19 17 17 20 21 22
8 17 22 21 37 43 27 37 50 57 57 51 42 42 43 46 46 43 41 42 44 48 48 49 52 56 50 47 47 46 43 38 36 33 28 28 25 21 19 18 20 23 24 25
8 25 6 25 41 50 51 47 49 48 50 51 46 48 45 45 45 45 48 47 47 48 48 50 51 48 44 46 45 43 38 36 31 29 29 26 22 20 20 21 24 25 26 27
15 10 20 50 55 56 54 57 58 53 53 51 48 49 46 45 46 48 50 49 48 48 47 47 47 44 41 39 39 37 32 29 32 32 27 22 23 23 23 23 23 23 25 28
42 69 63 77 68 55 51 54 53 51 52 50 46 43 42 44 46 47 47 48 48 45 41 43 44 41 35 34 34 34 35 38 31 29 29 25 22 21 22 24 23 24 27 30
50 55 53 67 51 45 42 47 48 49 50 46 43 41 43 41 42 42 44 43 40 39 39 40 43 46 47 46 41 36 34 34 30 29 27 26 24 24 24 26 25 25 29 32
47 55 69 63 51 50 45 46 46 47 46 43 40 35 34 36 36 35 38 37 37 37 39 43 48 49 48 44 41 36 27 26 28 28 27 25 26 28 29 30 30 29 27 28
34 33 43 45 51 52 54 57 55 47 41 36 35 34 30 31 30 33 35 35 38 43 43 43 43 40 34 33 29 30 29 27 25 25 26 28 30 31 33 33 32 32 29 29
43 46 45 52 54 53 55 46 39 35 34 35 34 34 34 31 29 32 33 35 36 34 36 37 35 34 32 30 29 27 25 24 26 28 30 32 33 33 33 36 37 36 32 32
44 46 45 42 38 35 40 38 36 34 34 34 34 33 32 32 32 33 35 36 37 38 37 36 36 33 31 29 27 26 27 28 28 29 31 33 35 36 37 40 40 40 35 32
30 32 31 27 24 23 20 25 25 26 26 28 29 30 29 28 30 32 36 38 39 38 36 35 33 31 29 29 29 28 27 27 29 32 34 37 37 38 39 41 40 40 41 41
27 27 25 23 19 18 20 24 27 28 27 29 30 33 35 36 37 38 39 36 31 31 34 32 29 27 27 28 26 27 29 31 33 35 38 39 40 40 42 42 43 43 43 45
24 24 23 20 19 19 22 23 25 26 27 30 31 32 33 35 37 38 40 41 36 34 31 30 27 25 25 27 29 30 33 34 34 36 40 42 44 44 43 42 44 46 47 49
23 23 22 20 19 19 22 24 25 26 28 29 30 31 34 36 37 36 32 29 32 31 29 27 25 26 26 29 31 32 34 37 40 41 42 43 46 46 45 45 47 48 51 52
24 24 22 20 18 20 22 24 26 25 24 25 27 29 29 26 27 32 33 31 32 30 27 26 26 26 29 32 33 35 37 40 42 43 43 45 46 48 49 49 50 53 54 55
28 26 23 22 22 23 24 24 25 25 26 27 27 28 29 30 31 33 31 30 29 28 26 25 26 28 32 34 36 38 40 43 45 45 47 48 49 49 50 53 55 55 58 60
27 25 24 22 21 20 23 24 27 28 30 31 31 32 33 33 31 29 28 28 29 28 25 26 28 31 34 35 38 41 44 46 46 48 49 49 50 52 53 56 58 59 62 64
30 26 21 21 20 23 24 26 27 27 30 32 33 32 31 30 29 30 31 30 30 28 26 27 28 32 35 38 42 45 47 48 48 49 49 50 52 55 57 58 61 63 66 68
33 32 30 30 29 28 27 27 28 27 28 28 26 28 30 32 32 32 32 32 31 29 28 28 31 35 38 41 44 45 47 48 48 49 51 53 55 57 59 62 65 67 70 73
Wind_Direction_500mb
239 131 179 199 197 199 212 227 210 245 241 253 253 251 261 265 270 245 214 219 225 232 240 242 245 246 248 247 242 241 240 239 241 244 249 255 261 264 264 263 259 253 247 252
233 216 204 169 200 207 213 228 235 252 266 261 259 243 250 270 283 274 260 247 250 248 239 244 248 249 249 249 245 244 243 242 243 245 248 252 254 254 251 247 243 243 249 262
237 171 138 221 218 212 217 227 221 234 244 262 265 257 253 254 257 260 267 273 268 261 259 253 253 252 250 248 244 244 244 243 243 242 242 242 240 239 237 236 237 241 252 267
238 127 216 232 195 207 216 229 225 241 256 254 257 265 258 257 255 261 263 265 267 271 265 257 253 247 244 242 240 240 239 238 237 235 234 232 231 230 230 233 237 244 256 270
220 218 336 304 236 184 190 234 228 223 241 255 260 267 281 270 266 267 272 275 271 268 268 261 254 249 242 236 234 235 235 234 233 231 230 228 225 224 224 231 239 247 260 279
163 222 220 228 236 201 99 252 224 218 234 245 257 267 268 276 280 278 278 273 275 271 265 258 250 241 237 234 235 232 232 230 229 225 222 220 220 220 224 229 234 245 262 280
204 207 276 247 240 142 167 230 251 220 224 235 226 238 255 271 275 280 282 274 269 261 258 251 238 231 231 232 234 233 231 227 223 220 219 217 216 217 220 227 241 253 270 287
187 217 240 208 114 191 221 225 251 246 234 234 248 257 261 269 276 279 277 274 266 251 239 232 226 227 229 230 231 230 227 221 217 214 213 214 217 224 233 242 254 268 279 290
184 211 235 194 216 234 242 247 238 243 243 241 256 255 261 269 268 270 265 259 256 242 233 225 226 228 230 230 229 225 223 218 208 203 208 214 220 226 234 246 263 274 284 291
43 256 247 249 238 248 261 254 254 259 267 269 258 255 263 266 263 254 253 254 245 235 229 227 226 229 227 226 224 217 212 213 214 200 206 219 225 229 241 259 271 281 289 294
251 264 34 259 244 249 259 258 249 249 253 261 264 264 260 256 254 259 262 253 244 237 232 228 229 228 223 215 209 204 201 208 216 217 213 220 230 243 258 268 274 281 287 292
233 220 216 253 261 263 267 269 269 263 261 260 261 261 258 255 256 256 252 246 240 234 228 224 222 221 217 209 202 195 196 209 221 226 224 231 243 250 261 268 273 278 284 290
247 260 262 270 273 269 266 268 268 265 261 259 260 261 260 259 255 249 243 239 234 233 227 219 215 209 200 197 200 201 203 210 220 236 245 241 249 256 266 272 270 276 281 284
251 267 266 262 259 267 262 259 257 256 258 261 263 262 258 253 248 241 239 239 235 228 220 211 204 200 195 200 204 208 208 218 233 239 247 253 260 267 269 268 269 271 277 282
268 264 257 264 268 269 267 262 257 254 257 259 260 256 249 246 242 236 231 227 221 216 210 202 200 199 199 198 208 219 229 228 234 243 253 264 273 276 277 279 278 277 280 285
266 265 266 272 270 266 263 259 253 251 249 248 248 242 239 229 225 226 224 220 211 203 201 202 206 206 207 214 217 221 228 236 244 257 268 274 276 276 276 278 284 292 295 290
270 265 267 263 265 265 260 259 256 254 243 236 232 228 224 219 214 211 206 202 202 203 205 205 208 212 214 213 221 231 241 252 260 266 268 269 270 274 281 288 292 292 291 290
258 261 264 265 273 273 259 250 246 242 236 228 217 212 212 208 206 202 202 202 201 200 202 205 209 211 215 222 232 243 251 257 262 266 270 276 279 281 281 284 288 289 291 291
258 253 250 256 269 270 256 243 236 228 218 212 208 206 206 210 210 209 205 203 202 203 204 206 210 216 224 232 241 249 258 267 275 278 278 277 277 280 284 287 289 291 294 296
258 250 247 252 256 247 247 233 220 215 211 206 201 203 204 202 201 202 204 206 204 203 206 210 218 224 232 243 254 263 267 272 274 277 281 283 284 286 287 286 287 291 293 296
257 246 246 250 242 233 212 206 215 214 206 202 206 205 202 201 201 202 202 202 203 207 212 219 225 233 245 255 262 264 270 274 280 287 286 286 286 288 288 289 290 291 294 295
243 234 235 237 232 222 207 194 191 197 204 204 198 201 204 203 203 202 206 213 214 217 222 228 237 246 253 261 268 276 283 286 288 287 287 288 289 288 288 289 290 291 293 295
229 225 230 228 225 219 214 212 208 205 209 213 213 213 213 216 217 215 216 220 222 225 230 238 247 258 267 275 278 280 282 283 286 288 290 289 289 289 290 291 292 293 296 298
225 224 225 229 232 230 226 223 223 218 211 209 209 210 212 213 215 220 221 225 228 234 241 251 264 272 277 279 282 286 288 289 291 292 291 289 289 289 290 292 295 298 298 299
229 227 233 238 239 235 227 226 225 222 221 219 217 217 217 217 217 221 228 234 240 247 254 265 274 281 285 285 286 288 289 290 290 288 288 288 290 291 292 294 297 298 298 298
236 243 246 246 244 239 238 237 234 230 226 224 220 219 220 224 227 231 236 240 244 250 259 270 279 284 287 288 288 288 289 288 287 287 288 289 291 292 294 297 298 298 298 298
235 238 240 241 241 242 240 239 238 235 233 229 227 227 229 233 236 240 243 244 247 250 259 271 280 285 286 286 287 288 288 288 289 290 290 292 293 295 297 298 298 298 298 299
Wind_Speed_850mb
30 7 15 19 30 34 39 48 22 45 43 47 31 16 41 54 52 24 47 68 70 67 63 61 59 59 59 60 59 54 49 45 40 35 30 27 25 24 23 21 19 16 13 12
27 20 18 7 19 37 47 46 36 47 43 40 37 20 21 33 44 43 44 52 62 70 71 69 69 69 67 64 60 58 52 47 40 34 30 27 24 22 20 19 18 16 13 11
28 13 11 14 41 32 26 41 36 39 52 45 40 33 43 49 57 70 70 62 66 72 75 78 80 80 76 72 65 60 55 50 43 38 32 28 24 22 20 19 18 16 15 13
16 13 19 17 17 39 43 37 36 36 41 47 46 62 53 53 62 57 56 63 69 72 77 81 86 86 80 73 68 62 57 51 46 40 35 31 27 25 23 21 19 16 15 14
14 24 4 15 14 21 26 42 39 41 52 65 67 55 53 71 58 59 62 66 70 75 77 70 79 85 82 75 67 62 58 53 47 41 38 34 30 27 24 21 18 16 14 14
7 19 20 23 31 22 12 14 34 50 39 40 56 14 32 74 53 48 46 41 49 61 69 70 78 82 79 71 66 62 57 52 47 43 40 34 30 26 23 20 18 16 14 16
22 9 10 16 10 24 19 24 55 41 59 57 22 39 60 50 38 39 41 41 46 49 56 64 66 69 69 66 66 61 56 51 45 41 37 32 28 24 22 19 16 14 14 16
4 8 16 23 6 22 23 13 38 27 47 63 64 58 52 46 46 42 38 39 41 45 49 51 55 58 58 58 58 52 54 52 46 40 35 30 25 22 19 16 15 16 16 18
13 12 16 39 37 55 53 38 40 35 31 30 35 44 42 42 44 46 39 36 40 46 49 50 53 55 57 53 50 49 45 44 44 39 32 26 26 22 19 17 17 20 21 22
8 17 22 21 37 43 27 37 50 57 57 51 42 42 43 46 46 43 41 42 44 48 48 49 52 56 50 47 47 46 43 38 36 33 28 28 25 21 19 18 20 23 24 25
8 25 6 25 41 50 51 47 49 48 50 51 46 48 45 45 45 45 48 47 47 48 48 50 51 48 44 46 45 43 38 36 31 29 29 26 22 20 20 21 24 25 26 27
15 10 20 50 55 56 54 57 58 53 53 51 48 49 46 45 46 48 50 49 48 48 47 47 47 44 41 39 39 37 32 29 32 32 27 22 23 23 23 23 23 23 25 28
42 69 63 77 68 55 51 54 53 51 52 50 46 43 42 44 46 47 47 48 48 45 41 43 44 41 35 34 34 34 35 38 31 29 29 25 22 21 22 24 23 24 27 30
50 55 53 67 51 45 42 47 48 49 50 46 43 41 43 41 42 42 44 43 40 39 39 40 43 46 47 46 41 36 34 34 30 29 27 26 24 24 24 26 25 25 29 32
47 55 69 63 51 50 45 46 46 47 46 43 40 35 34 36 36 35 38 37 37 37 39 43 48 49 48 44 41 36 27 26 28 28 27 25 26 28 29 30 30 29 27 28
34 33 43 45 51 52 54 57 55 47 41 36 35 34 30 31 30 33 35 35 38 43 43 43 43 40 34 33 29 30 29 27 25 25 26 28 30 31 33 33 32 32 29 29
43 46 45 52 54 53 55 46 39 35 34 35 34 34 34 31 29 32 33 35 36 34 36 37 35 34 32 30 29 27 25 24 26 28 30 32 33 33 33 36 37 36 32 32
44 46 45 42 38 35 40 38 36 34 34 34 34 33 32 32 32 33 35 36 37 38 37 36 36 33 31 29 27 26 27 28 28 29 31 33 35 36 37 40 40 40 35 32
30 32 31 27 24 23 20 25 25 26 26 28 29 30 29 28 30 32 36 38 39 38 36 35 33 31 29 29 29 28 27 27 29 32 34 37 37 38 39 41 40 40 41 41
27 27 25 23 19 18 20 24 27 28 27 29 30 33 35 36 37 38 39 36 31 31 34 32 29 27 27 28 26 27 29 31 33 35 38 39 40 40 42 42 43 43 43 45
24 24 23 20 19 19 22 23 25 26 27 30 31 32 33 35 37 38 40 41 36 34 31 30 27 25 25 27 29 30 33 34 34 36 40 42 44 44 43 42 44 46 47 49
23 23 22 20 19 19 22 24 25 26 28 29 30 31 34 36 37 36 32 29 32 31 29 27 25 26 26 29 31 32 34 37 40 41 42 43 46 46 45 45 47 48 51 52
24 24 22 20 18 20 22 24 26 25 24 25 27 29 29 26 27 32 33 31 32 30 27 26 26 26 29 32 33 35 37 40 42 43 43 45 46 48 49 49 50 53 54 55
28 26 23 22 22 23 24 24 25 25 26 27 27 28 29 30 31 33 31 30 29 28 26 25 26 28 32 34 36 38 40 43 45 45 47 48 49 49 50 53 55 55 58 60
27 25 24 22 21 20 23 24 27 28 30 31 31 32 33 33 31 29 28 28 29 28 25 26 28 31 34 35 38 41 44 46 46 48 49 49 50 52 53 56 58 59 62 64
30 26 21 21 20 23 24 26 27 27 30 32 33 32 31 30 29 30 31 30 30 28 26 27 28 32 35 38 42 45 47 48 48 49 49 50 52 55 57 58 61 63 66 68
33 32 30 30 29 28 27 27 28 27 28 28 26 28 30 32 32 32 32 32 31 29 28 28 31 35 38 41 44 45 47 48 48 49 51 53 55 57 59 62 65 67 70 73
Wind_Direction_850mb
239 131 179 199 197 199 212 227 210 245 241 253 253 251 261 265 270 245 214 219 225 232 240 242 245 246 248 247 242 241 240 239 241 244 249 255 261 264 264 263 259 253 247 252
233 216 204 169 200 207 213 228 235 252 266 261 259 243 250 270 283 274 260 247 250 248 239 244 248 249 249 249 245 244 243 242 243 245 248 252 254 254 251 247 243 243 249 262
237 171 138 221 218 212 217 227 221 234 244 262 265 257 253 254 257 260 267 273 268 261 259 253 253 252 250 248 244 244 244 243 243 242 242 242 240 239 237 236 237 241 252 267
238 127 216 232 195 207 216 229 225 241 256 254 257 265 258 257 255 261 263 265 267 271 265 257 253 247 244 242 240 240 239 238 237 235 234 232 231 230 230 233 237 244 256 270
220 218 336 304 236 184 190 234 228 223 241 255 260 267 281 270 266 267 272 275 271 268 268 261 254 249 242 236 234 235 235 234 233 231 230 228 225 224 224 231 239 247 260 279
163 222 220 228 236 201 99 252 224 218 234 245 257 267 268 276 280 278 278 273 275 271 265 258 250 241 237 234 235 232 232 230 229 225 222 220 220 220 224 229 234 245 262 280
204 207 276 247 240 142 167 230 251 220 224 235 226 238 255 271 275 280 282 274 269 261 258 251 238 231 231 232 234 233 231 227 223 220 219 217 216 217 220 227 241 253 270 287
187 217 240 208 114 191 221 225 251 246 234 234 248 257 261 269 276 279 277 274 266 251 239 232 226 227 229 230 231 230 227 221 217 214 213 214 217 224 233 242 254 268 279 290
184 211 235 194 216 234 242 247 238 243 243 241 256 255 261 269 268 270 265 259 256 242 233 225 226 228 230 230 229 225 223 218 208 203 208 214 220 226 234 246 263 274 284 291
43 256 247 249 238 248 261 254 254 259 267 269 258 255 263 266 263 254 253 254 245 235 229 227 226 229 227 226 224 217 212 213 214 200 206 219 225 229 241 259 271 281 289 294
251 264 34 259 244 249 259 258 249 249 253 261 264 264 260 256 254 259 262 253 244 237 232 228 229 228 223 215 209 204 201 208 216 217 213 220 230 243 258 268 274 281 287 292
233 220 216 253 261 263 267 269 269 263 261 260 261 261 258 255 256 256 252 246 240 234 228 224 222 221 217 209 202 195 196 209 221 226 224 231 243 250 261 268 273 278 284 290
247 260 262 270 273 269 266 268 268 265 261 259 260 261 260 259 255 249 243 239 234 233 227 219 215 209 200 197 200 201 203 210 220 236 245 241 249 256 266 272 270 276 281 284
251 267 266 262 259 267 262 259 257 256 258 261 263 262 258 253 248 241 239 239 235 228 220 211 204 200 195 200 204 208 208 218 233 239 247 253 260 267 269 268 269 271 277 282
268 264 257 264 268 269 267 262 257 254 257 259 260 256 249 246 242 236 231 227 221 216 210 202 200 199 199 198 208 219 229 228 234 243 253 264 273 276 277 279 278 277 280 285
266 265 266 272 270 266 263 259 253 251 249 248 248 242 239 229 225 226 224 220 211 203 201 202 206 206 207 214 217 221 228 236 244 257 268 274 276 276 276 278 284 292 295 290
270 265 267 263 265 265 260 259 256 254 243 236 232 228 224 219 214 211 206 202 202 203 205 205 208 212 214 213 221 231 241 252 260 266 268 269 270 274 281 288 292 292 291 290
258 261 264 265 273 273 259 250 246 242 236 228 217 212 212 208 206 202 202 202 201 200 202 205 209 211 215 222 232 243 251 257 262 266 270 276 279 281 281 284 288 289 291 291
258 253 250 256 269 270 256 243 236 228 218 212 208 206 206 210 210 209 205 203 202 203 204 206 210 216 224 232 241 249 258 267 275 278 278 277 277 280 284 287 289 291 294 296
258 250 247 252 256 247 247 233 220 215 211 206 201 203 204 202 201 202 204 206 204 203 206 210 218 224 232 243 254 263 267 272 274 277 281 283 284 286 287 286 287 291 293 296
257 246 246 250 242 233 212 206 215 214 206 202 206 205 202 201 201 202 202 202 203 207 212 219 225 233 245 255 262 264 270 274 280 287 286 286 286 288 288 289 290 291 294 295
243 234 235 237 232 222 207 194 191 197 204 204 198 201 204 203 203 202 206 213 214 217 222 228 237 246 253 261 268 276 283 286 288 287 287 288 289 288 288 289 290 291 293 295
229 225 230 228 225 219 214 212 208 205 209 213 213 213 213 216 217 215 216 220 222 225 230 238 247 258 267 275 278 280 282 283 286 288 290 289 289 289 290 291 292 293 296 298
225 224 225 229 232 230 226 223 223 218 211 209 209 210 212 213 215 220 221 225 228 234 241 251 264 272 277 279 282 286 288 289 291 292 291 289 289 289 290 292 295 298 298 299
229 227 233 238 239 235 227 226 225 222 221 219 217 217 217 217 217 221 228 234 240 247 254 265 274 281 285 285 286 288 289 290 290 288 288 288 290 291 292 294 297 298 298 298
236 243 246 246 244 239 238 237 234 230 226 224 220 219 220 224 227 231 236 240 244 250 259 270 279 284 287 288 288 288 289 288 287 287 288 289 291 292 294 297 298 298 298 298
235 238 240 241 241 242 240 239 238 235 233 229 227 227 229 233 236 240 243 244 247 250 259 271 280 285 286 286 287 288 288 288 289 290 290 292 293 295 297 298 298 298 298 299